Вернуться в каталог

LEMUR 2 WILSON

АктивенНаукаSSO
NORAD 62694·PAYLOAD·🇺🇸 United States

Запущен Jan 14, 2025 с Vandenberg Space Force Base

Loading…

Ближайшие Пролёты (ближайшие 24 часа)

TLE

СвежийSource: Space-Track

Эпоха: Sep 13, 2026, 18:13 UTC

1 62694U 25009CP  26256.75929942  .00001913  00000-0  17796-3 0  9998
2 62694  97.6967 333.6586 0004729 100.7985 259.3769 14.95472873 90593

Отслеживайте LEMUR 2 WILSON в реальном времени с AllMySat

Download on the App Store